Weather History for New York, NY

Change the Weather History Date:

Thursday, January 17, 2013

  Actual Average Record
Temperature  
Mean Temperature 40 °F 33 °F  
Max Temperature 44 °F 39 °F 59 °F (1973)
Min Temperature 36 °F 26 °F -1 °F (1977)
Degree Days  
Heating Degree Days 25 32  
Month to date heating degree days 430 540  
Since 1 July heating degree days 1882 2146  
Cooling Degree Days 0 0  
Month to date cooling degree days 0 0  
Year to date cooling degree days 0 0  
Moisture  
Dew Point 26 °F    
Average Humidity 63    
Maximum Humidity 76    
Minimum Humidity 49    
Precipitation  
Precipitation 0.00 in 0.11 in 1.20 in (1994)
Month to date precipitation 1.38 1.78  
Year to date precipitation 1.38 1.78  
Snow  
Snow 0.00 in 0.20 in 3.70 in (1985)
Month to date snowfall 0.1 4.1  
Since 1 July snowfall 2.1 9.6  
Snow Depth 0.00 in    
Sea Level Pressure  
Sea Level Pressure 30.02 in    
Wind  
Wind Speed 11 mph (NW)    
Max Wind Speed 21 mph    
Max Gust Speed 24 mph    
Visibility 10 miles    
Events      
T = Trace of Precipitation, MM = Missing Value Source: NWS Daily Summary

Daily Weather History Graph

Daily Weather History Graph

Search for Another Location

Airport:

Trip Planner

Search our weather history database for the weather conditions in past years. The results will help you decide how hot, cold, wet, or windy it might be!

Date:

Astronomy

Jan. 17, 2013 Rise Set
Actual Time 7:16 AM EST 4:55 PM EST
Civil Twilight 6:46 AM EST 5:25 PM EST
Nautical Twilight 6:12 AM EST 5:58 PM EST
Astronomical Twilight 5:40 AM EST 6:31 PM EST
Moon 10:19 AM EST (1/17) 11:47 PM EST (1/17)
Length of Visible Light 10h 38m
Length of Day
9h 38m
Waxing Crescent, 37% of the Moon is Illuminated
Jan 17
Waxing Crescent
Jan 18
First Quarter
Jan 26
Full
Feb 3
Last Quarter
Feb 10
New

Hourly Weather History & Observations

Time (EST) Temp. Windchill Dew Point Humidity Pressure Visibility Wind Dir Wind Speed Gust Speed Precip Events Conditions
12:51 AM 39.0 °F 34.0 °F 32.0 °F 76% 29.93 in 10.0 mi WSW 6.9 mph - N/A   Overcast
1:51 AM 39.2 °F 37.0 °F 30.2 °F 70% 29.92 in 10.0 mi WSW 3.5 mph - N/A   Overcast
2:51 AM 39.9 °F 34.5 °F 28.9 °F 65% 29.94 in 10.0 mi WSW 8.1 mph - N/A   Overcast
3:51 AM 41.0 °F 34.3 °F 28.0 °F 60% 29.92 in 10.0 mi WSW 11.5 mph - N/A   Overcast
4:51 AM 39.9 °F 33.4 °F 28.0 °F 63% 29.92 in 10.0 mi West 10.4 mph 18.4 mph N/A   Overcast
5:51 AM 39.9 °F 32.9 °F 27.0 °F 60% 29.96 in 10.0 mi WNW 11.5 mph - N/A   Overcast
6:51 AM 39.9 °F 32.5 °F 26.1 °F 58% 29.98 in 10.0 mi WNW 12.7 mph - N/A   Mostly Cloudy
7:51 AM 39.9 °F 31.8 °F 26.1 °F 58% 30.01 in 10.0 mi NW 15.0 mph - N/A   Mostly Cloudy
8:51 AM 39.9 °F 32.9 °F 26.1 °F 58% 30.05 in 10.0 mi NW 11.5 mph - N/A   Mostly Cloudy
9:51 AM 41.0 °F 33.5 °F 26.1 °F 55% 30.06 in 10.0 mi NW 13.8 mph - N/A   Mostly Cloudy
10:51 AM 41.0 °F 33.5 °F 26.1 °F 55% 30.06 in 10.0 mi NW 13.8 mph 21.9 mph N/A   Mostly Cloudy
11:51 AM 42.1 °F 33.9 °F 26.1 °F 53% 30.05 in 10.0 mi WNW 17.3 mph - N/A   Mostly Cloudy
12:51 PM 43.0 °F 36.4 °F 27.0 °F 53% 30.04 in 10.0 mi NW 12.7 mph - N/A   Mostly Cloudy
1:51 PM 43.0 °F 36.8 °F 26.1 °F 51% 30.04 in 10.0 mi NW 11.5 mph - N/A   Mostly Cloudy
2:51 PM 43.0 °F 36.0 °F 25.0 °F 49% 30.04 in 10.0 mi NW 13.8 mph - N/A   Mostly Cloudy
3:51 PM 42.1 °F 37.1 °F 25.0 °F 51% 30.05 in 10.0 mi North 8.1 mph - N/A   Mostly Cloudy
4:51 PM 42.1 °F 37.1 °F 26.1 °F 53% 30.07 in 10.0 mi NNW 8.1 mph - N/A   Mostly Cloudy
5:51 PM 41.0 °F 35.8 °F 25.0 °F 53% 30.06 in 10.0 mi NW 8.1 mph - N/A   Overcast
6:51 PM 41.0 °F 35.8 °F 24.1 °F 51% 30.09 in 10.0 mi NW 8.1 mph - N/A   Overcast
7:51 PM 41.0 °F 35.8 °F 24.1 °F 51% 30.08 in 10.0 mi NNW 8.1 mph - N/A   Overcast
8:51 PM 39.9 °F 32.9 °F 24.1 °F 53% 30.05 in 10.0 mi North 11.5 mph - N/A   Overcast
9:51 PM 37.9 °F 30.9 °F 25.0 °F 60% 30.06 in 10.0 mi North 10.4 mph - N/A   Overcast
10:51 PM 37.0 °F 29.3 °F 23.0 °F 57% 30.02 in 10.0 mi North 11.5 mph - N/A   Overcast
11:51 PM 36.0 °F 29.6 °F 23.0 °F 59% 30.04 in 10.0 mi NE 8.1 mph - N/A   Overcast